Regional Weather Roundup
Issued by NWS Jackson, KY

Home | Current Version | Previous Version | Text Only | Print | Product List | Glossary On
Versions: 1 2 3 4 5 6 7 8 9 10 11 12 13 14 15 16 17 18 19 20 21 22 23 24 25 26 27 28 29 30 31 32 33 34 35 36 37 38 39 40 41 42 43 44 45 46 47 48 49 50
000
ASUS43 KJKL 200210
RWRJKL

EAST KENTUCKY HOURLY WEATHER ROUNDUP
NATIONAL WEATHER SERVICE JACKSON KY
900 PM EST THU JAN 19 2017

NOTE: "FAIR" INDICATES FEW OR NO CLOUDS BELOW 12,000 FEET WITH
NO SIGNIFICANT WEATHER AND/OR OBSTRUCTIONS TO VISIBILITY.

* THESE REPORTS ARE NOT UNDER NWS QUALITY CONTROL AND MAY NOT
  REPORT WEATHER SUCH AS PRECIPITATION AND FOG.

KYZ079-080-083-085-087-088-110-112-115-119-120-200300
...EASTERN KENTUCKY...

CITY           SKY/WX    TMP DP  RH WIND       PRES   REMARKS
JACKSON        MOCLDY    50  41  71 E7        29.85F
LONDON         LGT RAIN  50  47  89 E3        29.84F
SOMERSET*      RAIN      50  50 100 CALM      29.83F
MONTICELLO*    LGT RAIN  54  53  97 VRB3      29.82F
WILLIAMSBURG*  CLOUDY    50  50 100 SE7       29.83F
MIDDLESBORO*   CLOUDY    51  47  87 W5        29.87F
HARLAN APT*    CLOUDY    52  43  71 CALM      29.87F
PIKE CO APT*     N/A     50  42  74 NE3       29.86F
MOREHEAD APT*  CLOUDY    50  37  62 E6        29.86F
ASHLAND*       MOCLDY    46  39  76 E3        29.86F
$$

KYZ035-036-041-042-044-050-067-078-099-200300
...CENTRAL KENTUCKY...

CITY           SKY/WX    TMP DP  RH WIND       PRES   REMARKS
MT STERLING*   CLOUDY    48  43  81 SE6       29.84F
FLEMING/MASON* CLOUDY    48  40  72 E9        29.85F
DANVILLE*      LGT RAIN  50  50 100 SE3       29.81F
LEXINGTON      LGT RAIN  50  47  89 SE10      29.81F
FRANKFORT      LGT RAIN  49  45  86 E6        29.79F
LOUISVILLE     LGT RAIN  51  49  92 E3        29.76F
LEBANON*       LGT RAIN  55  54  94 SE8       29.78F
GLASGOW*       LGT RAIN N/A N/A N/A SE9       29.74F
BOWLING GREEN  LGT RAIN  56  55  97 E6        29.71F FOG
$$

KYZ091>093-OHZ055-061-077-WVZ005-015-034-035-042-200300
...SOUTHERN OHIO/WEST VIRGINIA...

CITY           SKY/WX    TMP DP  RH WIND       PRES   REMARKS
COVINGTON      CLOUDY    47  43  86 E9        29.81F
COLUMBUS       CLOUDY    42  37  82 E9        29.89F
DAYTON         CLOUDY    43  38  82 E13       29.84F
WILMINGTON     CLOUDY    44  39  82 E10       29.85F
HUNTINGTON     MOCLDY    48  40  73 E6        29.87F
CHARLESTON     CLOUDY    47  40  76 NE5       29.89F
PINEVILLE*     CLOUDY    46  41  81 MISG      29.94F
BECKLEY        CLOUDY    48  32  53 SE8       29.92F
BLUEFIELD      CLOUDY    50  31  48 E5        29.93F
LOGAN CO APT*  CLOUDY    50  39  66 CALM      29.88F
$$

VAZ002-007-008-TNZ017-027-036-066-071-200300
...SOUTHWEST VIRGINIA/EAST TENNESSEE...

CITY           SKY/WX    TMP DP  RH WIND       PRES   REMARKS
WISE*          MOCLDY    54  39  58 SE3       29.90F
JONESVILLE*      N/A     48  46  93 CALM      29.90F
ABINGDON*      CLOUDY    58  34  41 E8        29.90F
BRISTOL        CLOUDY    52  42  69 CALM      29.89F
MORRISTOWN*    CLOUDY    54  45  71 E3        29.85F
SEVIERVILLE*   MOCLDY    52  46  82 CALM      29.85S
KNOXVILLE      CLOUDY    55  46  71 N7        29.84S
LAFOLLETTE*    MOCLDY    50  50 100 CALM      29.89F
OAK RIDGE      LGT RAIN  53  47  79 NE3       29.87S
CROSSVILLE     LGT RAIN  49  46  90 VRB3      29.84F FOG
NASHVILLE      RAIN      60  58  92 W7        29.71F FOG
$$

...KEY TO REMARKS...
VSB - VISIBILITY IN MILES
WCI - WIND CHILL INDEX
HX  - HEAT INDEX

$$



USA.gov is the U.S. government's official web portal to all federal, state and local government web resources and services.